{"data":{"norad_id":66435,"intl_designator":"2025-259P","name":"STARLINK-35502","alt_names":[],"object_type":"PAYLOAD","status":"ACTIVE","operator":null,"country":"US","launch_date":"2025-11-11","launch_site_code":"AFETR","launch_vehicle":null,"mission":null,"orbit_class":"UNKNOWN","rcs_meters":null,"size_class":null,"mass_kg":null,"dimensions":null,"purposes":["comms"],"wikipedia_slug":null,"has_3d_model":false,"image_url":null,"decayed_at":null,"tle_current":{"epoch":"2026-05-25T04:17:23.972352Z","epoch_age_seconds":56297,"freshness":"FRESH","line1":"1 66435U 25259P   26145.17874968  .00022213  00000+0  81399-3 0  9997","line2":"2 66435  43.0010 201.9996 0000949 259.3252 100.7493 15.27592200 31191","mean_motion":15.275922,"eccentricity":9.49e-5,"inclination_deg":43.001,"raan_deg":201.9996,"arg_perigee_deg":259.3252,"mean_anomaly_deg":100.7493,"bstar":0.00081399,"rev_number":3119,"period_min":94.265995859366,"perigee_km":482.36144200013,"apogee_km":483.66368818758,"semimajor_km":6861.1495650939,"source":"CELESTRAK","updated_at":"2026-05-25T13:38:21.209643Z"}}}